EUTELSAT 8 WEST B

Last updated on Jan. 20, 2020, 4:31 a.m. UTC

1 40875U 15039B   20019.34542178 -.00000070  00000-0  00000-0 0  9996
2 40875   0.0662 357.0179 0001948 291.1094 306.4615  1.00270399 16193
UTC
Height (km)
Latitude
Longitude
Inclination
Orbital Period
UTC large
Height (km)
Speed (km/s)
/
Latitude / Longitude
Inclination (degrees)
Orbital Period (minutes)
Azimuth
Elevation
Range (km)
Doppler Factor
iOS Compass Heading
iOS Angle

Next 30 passes for location: Hong Kong

Rise time Rise Azimuth (degrees) Set time Set Azimuth (degrees) Duration Max altitude (degrees)

No matching passes for this satellites